N5TDX Weather Reports


Display with metric or nautical units.
time (UTC)temp
F
wind
direction
speed
MPH
gust
MPH
rain 1hr
in
rain 24hr
in
rain mn
in
humidity
%
barometer
mb
20260509201512 91 62 4.0 6.0 0.00 0.00 0.00 30 1006.4
20260509201010 91 57 1.0 4.0 0.00 0.00 0.00 26 1006.4
20260509200510 91 309 0.0 6.0 0.00 0.00 0.00 30 1006.4
20260509200007 90 28 0.0 4.0 0.00 0.00 0.00 34 1006.6
20260509195502 90 328 1.0 3.0 0.00 0.00 0.00 35 1006.4
20260509195001 91 347 1.0 4.0 0.00 0.00 0.00 36 1006.7
20260509194457 90 112 3.0 4.0 0.00 0.00 0.00 40 1006.6
20260509193955 90 84 3.0 4.0 0.00 0.00 0.00 39 1006.6
20260509193454 90 72 2.0 4.0 0.00 0.00 0.00 38 1006.6
20260509192951 91 63 4.0 6.0 0.00 0.00 0.00 38 1006.8
20260509192448 92 25 1.0 2.0 0.00 0.00 0.00 36 1006.5
20260509191942 91 46 2.0 4.0 0.00 0.00 0.00 40 1006.7
20260509191438 91 96 2.0 6.0 0.00 0.00 0.00 40 1006.6
20260509190934 90 315 0.0 1.0 0.00 0.00 0.00 41 1006.7
20260509190431 90 30 1.0 4.0 0.00 0.00 0.00 43 1006.9
20260509185929 90 61 1.0 3.0 0.00 0.00 0.00 45 1006.9
20260509185426 89 339 1.0 3.0 0.00 0.00 0.00 42 1006.9
20260509184923 89 17 2.0 4.0 0.00 0.00 0.00 43 1006.9
20260509184420 88 56 2.0 4.0 0.00 0.00 0.00 44 1007.2
20260509183917 89 65 2.0 7.0 0.00 0.00 0.00 44 1006.9
20260509183411 90 83 0.0 3.0 0.00 0.00 0.00 44 1007.1
20260509182908 88 49 0.0 1.0 0.00 0.00 0.00 46 1007.2
20260509182404 91 76 3.0 7.0 0.00 0.00 0.00 41 1007.3
20260509181902 93 33 0.0 1.0 0.00 0.00 0.00 37 1007.2
20260509181359 92 71 1.0 2.0 0.00 0.00 0.00 39 1007.2
20260509180857 91 270 0.0 2.0 0.00 0.00 0.00 40 1007.4
20260509180352 91 202 3.0 4.0 0.00 0.00 0.00 38 1007.4
20260509175849 92 204 0.0 2.0 0.00 0.00 0.00 38 1007.5
20260509175345 92 27 0.0 1.0 0.00 0.00 0.00 41 1007.5
20260509174841 91 16 0.0 1.0 0.00 0.00 0.00 41 1007.5
20260509174338 90 6 0.0 1.0 0.00 0.00 0.00 43 1007.7
20260509173834 91 350 0.0 1.0 0.00 0.00 0.00 42 1007.6
20260509173329 90 38 0.0 1.0 0.00 0.00 0.00 43 1007.6
20260509172825 91 196 0.0 3.0 0.00 0.00 0.00 42 1007.7
20260509172322 89 327 1.0 1.0 0.00 0.00 0.00 44 1007.8
20260509171818 89 13 0.0 2.0 0.00 0.00 0.00 43 1007.6
20260509171314 89 53 1.0 1.0 0.00 0.00 0.00 43 1008.0
20260509170811 88 60 1.0 2.0 0.00 0.00 0.00 43 1007.7
20260509170306 88 341 1.0 3.0 0.00 0.00 0.00 43 1007.7
20260509165806 88 1 1.0 3.0 0.00 0.00 0.00 44 1008.0
20260509165301 87 345 1.0 1.0 0.00 0.00 0.00 44 1007.9
20260509164757 86 180 1.0 2.0 0.00 0.00 0.00 44 1007.8
20260509164253 87 292 1.0 2.0 0.00 0.00 0.00 45 1008.2
20260509163750 86 251 1.0 1.0 0.00 0.00 0.00 46 1007.9
20260509163247 86 57 1.0 3.0 0.00 0.00 0.00 47 1008.1
20260509162745 86 323 1.0 2.0 0.00 0.00 0.00 47 1008.0
20260509162239 86 77 1.0 3.0 0.00 0.00 0.00 47 1008.1
20260509161735 86 335 2.0 2.0 0.00 0.00 0.00 48 1008.3
20260509161232 86 311 2.0 2.0 0.00 0.00 0.00 48 1008.1
20260509160727 85 299 0.0 1.0 0.00 0.00 0.00 49 1008.3
20260509160224 85 29 0.0 1.0 0.00 0.00 0.00 53 1008.2
20260509155718 84 356 0.0 1.0 0.00 0.00 0.00 51 1008.1
20260509155216 84 4 1.0 2.0 0.00 0.00 0.00 52 1008.3
20260509154711 84 330 1.0 1.0 0.00 0.00 0.00 54 1008.0
20260509154209 83 314 1.0 1.0 0.00 0.00 0.00 54 1007.9
20260509153706 83 316 1.0 1.0 0.00 0.00 0.00 54 1007.9
20260509153202 82 19 0.0 1.0 0.00 0.00 0.00 55 1007.9
20260509152658 81 3 0.0 1.0 0.00 0.00 0.00 56 1008.0
20260509152155 81 72 1.0 2.0 0.00 0.00 0.00 55 1008.0
20260509151651 81 332 1.0 2.0 0.00 0.00 0.00 56 1007.9
20260509151149 81 343 1.0 2.0 0.00 0.00 0.00 56 1007.9
20260509150647 80 46 1.0 2.0 0.00 0.00 0.00 57 1007.9
20260509150145 80 41 1.0 2.0 0.00 0.00 0.00 60 1007.9
20260509145641 79 50 2.0 2.0 0.00 0.00 0.00 59 1008.2
20260509145136 79 335 1.0 2.0 0.00 0.00 0.00 60 1008.0
20260509144633 78 353 0.0 1.0 0.00 0.00 0.00 60 1008.0
20260509144130 78 26 0.0 2.0 0.00 0.00 0.00 59 1008.0
20260509143627 78 66 1.0 4.0 0.00 0.00 0.00 60 1008.1
20260509143125 78 58 0.0 1.0 0.00 0.00 0.00 63 1008.2
20260509142620 78 51 0.0 1.0 0.00 0.00 0.00 62 1008.0
20260509142117 78 17 1.0 2.0 0.00 0.00 0.00 62 1008.1
20260509141612 77 14 0.0 1.0 0.00 0.00 0.00 66 1008.2
20260509141109 76 18 0.0 1.0 0.00 0.00 0.00 68 1008.1
20260509140606 74 359 0.0 2.0 0.00 0.00 0.00 72 1008.2
20260509140104 73 324 1.0 1.0 0.00 0.00 0.00 73 1008.3
20260509135601 73 1 0.0 1.0 0.00 0.00 0.00 75 1008.4
20260509135059 72 342 0.0 1.0 0.00 0.00 0.00 75 1008.2
20260509134555 72 308 1.0 2.0 0.00 0.00 0.00 74 1008.5
20260509134053 72 312 0.0 1.0 0.00 0.00 0.00 75 1008.2
20260509133550 72 343 1.0 2.0 0.00 0.00 0.00 75 1008.2
20260509133047 71 336 1.0 1.0 0.00 0.00 0.00 75 1008.1
20260509132546 71 316 1.0 2.0 0.00 0.00 0.00 75 1008.1
20260509132044 71 313 0.0 2.0 0.00 0.00 0.00 76 1008.1
20260509131539 70 327 1.0 2.0 0.00 0.00 0.00 76 1008.2
20260509131036 70 303 1.0 2.0 0.00 0.00 0.00 75 1007.8
20260509130532 70 70 0.0 1.0 0.00 0.00 0.00 76 1007.9
20260509130029 70 49 0.0 1.0 0.00 0.00 0.00 76 1008.2
20260509125525 69 71 0.0 0.0 0.00 0.00 0.00 76 1008.0
20260509125022 69 190 0.0 1.0 0.00 0.00 0.00 76 1007.9
20260509124519 69 336 0.0 0.0 0.00 0.00 0.00 76 1008.0
20260509124016 69 44 0.0 1.0 0.00 0.00 0.00 76 1008.1
20260509123514 69 229 0.0 2.0 0.00 0.00 0.00 76 1008.0
20260509123010 69 240 1.0 2.0 0.00 0.00 0.00 75 1007.7
20260509122506 69 174 0.0 1.0 0.00 0.00 0.00 75 1007.8
20260509122003 69 64 0.0 1.0 0.00 0.00 0.00 76 1007.6
20260509121500 69 332 0.0 1.0 0.00 0.00 0.00 76 1007.5
20260509120958 69 115 0.0 1.0 0.00 0.00 0.00 77 1007.6
20260509120455 69 36 0.0 2.0 0.00 0.00 0.00 78 1007.4
20260509115954 69 18 0.0 1.0 0.00 0.00 0.00 78 1007.3
20260509115450 68 357 1.0 2.0 0.00 0.00 0.00 79 1007.4
20260509114948 68 58 1.0 2.0 0.00 0.00 0.00 79 1007.6
20260509114446 68 346 0.0 1.0 0.00 0.00 0.00 79 1007.3
20260509113945 68 43 0.0 1.0 0.00 0.00 0.00 80 1007.2
20260509113442 67 42 0.0 0.0 0.00 0.00 0.00 79 1007.3
20260509112939 67 42 0.0 1.0 0.00 0.00 0.00 79 1006.9
20260509112436 68 341 0.0 1.0 0.00 0.00 0.00 78 1006.9
20260509111933 68 51 0.0 1.0 0.00 0.00 0.00 78 1006.8
20260509111431 68 21 0.0 1.0 0.00 0.00 0.00 77 1006.7
20260509110928 68 345 0.0 1.0 0.00 0.00 0.00 77 1006.8
20260509110423 68 54 1.0 1.0 0.00 0.00 0.00 76 1006.6
20260509105922 68 334 0.0 1.0 0.00 0.00 0.00 76 1006.5
20260509105420 68 329 0.0 1.0 0.00 0.00 0.00 75 1006.5
20260509104917 68 348 0.0 2.0 0.00 0.00 0.00 74 1006.9
20260509104413 68 323 1.0 2.0 0.00 0.00 0.00 74 1006.7
20260509103911 68 312 1.0 2.0 0.00 0.00 0.00 75 1006.8
20260509103408 68 337 1.0 2.0 0.00 0.00 0.00 77 1006.8
20260509102907 68 321 1.0 3.0 0.00 0.00 0.00 79 1006.9
20260509102404 68 251 0.0 0.0 0.00 0.00 0.00 81 1006.9
20260509101859 68 225 0.0 1.0 0.00 0.00 0.00 81 1006.7
20260509101355 69 225 0.0 0.0 0.00 0.00 0.00 80 1006.6
20260509100854 69 266 0.0 1.0 0.00 0.00 0.00 80 1006.8
20260509100350 69 359 0.0 1.0 0.00 0.00 0.00 79 1006.6
20260509095847 69 44 0.0 0.0 0.00 0.00 0.00 79 1006.6
20260509095344 69 5 1.0 1.0 0.00 0.00 0.00 79 1006.5
20260509094841 69 331 0.0 1.0 0.00 0.00 0.00 79 1006.4
20260509094338 70 2 0.0 2.0 0.00 0.00 0.00 79 1006.5
20260509093836 70 321 2.0 3.0 0.00 0.00 0.00 81 1006.4
20260509093332 70 311 2.0 6.0 0.00 0.00 0.00 83 1006.5
20260509092831 70 301 1.0 2.0 0.00 0.00 0.00 88 1004.5
20260509092329 70 115 1.0 3.0 0.00 0.00 0.00 88 1003.4
20260509091826 70 95 1.0 3.0 0.00 0.00 0.00 88 1003.5
20260509091323 69 122 1.0 3.0 0.00 0.00 0.00 88 1003.4
20260509090820 69 128 1.0 4.0 0.00 0.00 0.00 88 1003.5
20260509090317 69 144 2.0 4.0 0.00 0.00 0.00 88 1003.9
20260509085815 69 216 0.0 4.0 0.00 0.00 0.00 88 1004.3
20260509085312 69 191 1.0 1.0 0.00 0.00 0.00 88 1004.2
20260509084809 69 199 0.0 2.0 0.00 0.00 0.00 88 1003.9
20260509084306 69 220 0.0 1.0 0.00 0.00 0.00 88 1004.5
20260509083803 69 257 1.0 2.0 0.00 0.00 0.00 88 1004.3
20260509083300 69 166 1.0 2.0 0.00 0.00 0.00 87 1004.7
20260509082756 68 345 1.0 3.0 0.00 0.00 0.00 87 1004.6
20260509082253 68 259 1.0 2.0 0.00 0.00 0.00 87 1004.8
20260509081750 68 164 0.0 2.0 0.00 0.00 0.00 88 1004.8
20260509081247 68 204 1.0 1.0 0.00 0.00 0.00 88 1005.2
20260509080745 68 179 2.0 2.0 0.00 0.00 0.00 89 1005.3
20260509080243 68 225 0.0 2.0 0.00 0.00 0.00 89 1005.6
20260509075741 69 164 0.0 1.0 0.00 0.00 0.00 88 1005.5
20260509075238 69 160 1.0 2.0 0.00 0.00 0.00 88 1005.7
20260509074735 68 122 1.0 2.0 0.00 0.00 0.00 88 1005.9
20260509074233 68 139 1.0 1.0 0.00 0.00 0.00 88 1005.8
20260509073728 68 100 1.0 3.0 0.00 0.00 0.00 88 1005.9
20260509073225 68 161 0.0 1.0 0.00 0.00 0.00 88 1007.0
20260509072722 69 127 0.0 1.0 0.00 0.00 0.00 88 1007.2
20260509072219 69 222 0.0 0.0 0.00 0.00 0.00 88 1007.7
20260509071715 69 201 0.0 1.0 0.00 0.00 0.00 87 1007.7
20260509071213 70 205 0.0 1.0 0.00 0.00 0.00 87 1007.9
20260509070709 70 228 0.0 3.0 0.00 0.00 0.00 86 1008.2
20260509070206 70 251 3.0 3.0 0.00 0.00 0.00 86 1008.5
20260509065702 70 202 2.0 6.0 0.00 0.00 0.00 87 1009.0
20260509065158 70 313 1.0 3.0 0.00 0.00 0.00 88 1009.4
20260509064655 70 329 0.0 1.0 0.00 0.00 0.00 88 1009.3
20260509064153 70 325 1.0 1.0 0.00 0.00 0.00 88 1009.1
20260509063650 70 58 0.0 1.0 0.00 0.00 0.00 88 1009.1
20260509063146 70 338 0.0 1.0 0.00 0.00 0.00 88 1008.9
20260509062643 70 293 0.0 1.0 0.00 0.00 0.00 88 1008.7
20260509062140 70 335 0.0 1.0 0.00 0.00 0.00 88 1008.8
20260509061637 70 285 1.0 1.0 0.00 0.00 0.00 88 1008.8
20260509061134 70 5 0.0 0.0 0.00 0.00 0.00 89 1008.8
20260509060632 69 2 0.0 1.0 0.00 0.00 0.00 89 1008.8
20260509060128 69 81 0.0 0.0 0.00 0.00 0.00 88 1008.6
20260509055624 69 82 0.0 0.0 0.00 0.00 0.00 88 1008.5
20260509055119 69 38 0.0 0.0 0.00 0.00 0.00 88 1008.7
20260509054617 69 53 0.0 2.0 0.00 0.00 0.00 88 1008.5
20260509054114 69 126 0.0 0.0 0.00 0.00 0.00 88 1008.6
20260509053613 69 126 0.0 0.0 0.00 0.00 0.00 88 1008.4
20260509053109 69 126 0.0 0.0 0.00 0.00 0.00 89 1008.4
20260509052607 69 126 0.0 1.0 0.00 0.00 0.00 89 1008.5
20260509052105 69 133 0.0 0.0 0.00 0.00 0.00 89 1008.3
20260509051602 69 134 0.0 0.0 0.00 0.00 0.00 89 1007.9
20260509051059 69 137 0.0 0.0 0.00 0.00 0.00 88 1007.7
20260509050556 69 147 0.0 0.0 0.00 0.00 0.00 88 1007.4
20260509050052 69 156 0.0 1.0 0.00 0.00 0.00 87 1007.4
20260509045550 70 119 0.0 0.0 0.00 0.05 0.05 86 1007.1
20260509045047 70 119 0.0 1.0 0.00 0.05 0.05 86 1007.2
20260509044544 70 121 0.0 1.0 0.00 0.05 0.05 86 1007.5
20260509044042 70 127 0.0 1.0 0.00 0.05 0.05 86 1007.7
20260509043538 71 104 0.0 1.0 0.00 0.05 0.05 85 1007.5
20260509043033 71 122 0.0 1.0 0.00 0.05 0.05 85 1007.8
20260509042530 71 96 0.0 1.0 0.00 0.05 0.05 85 1007.5
20260509042026 71 121 1.0 2.0 0.00 0.05 0.05 85 1007.6
20260509041523 71 130 0.0 0.0 0.00 0.05 0.05 85 1007.5
20260509041021 71 93 0.0 1.0 0.00 0.05 0.05 84 1007.6
20260509040519 71 112 1.0 1.0 0.00 0.05 0.05 84 1007.7
20260509040015 71 133 1.0 2.0 0.00 0.05 0.05 84 1007.4
20260509035512 71 94 0.0 3.0 0.00 0.05 0.05 84 1007.3
20260509035009 71 112 0.0 1.0 0.00 0.05 0.05 84 1007.2
20260509034508 72 69 0.0 1.0 0.00 0.05 0.05 83 1007.0
20260509034004 72 180 1.0 2.0 0.00 0.05 0.05 83 1007.1
20260509033501 72 196 2.0 2.0 0.00 0.05 0.05 83 1006.9
20260509032957 72 92 4.0 4.0 0.00 0.05 0.05 83 1006.6
20260509032455 72 160 2.0 4.0 0.00 0.05 0.05 82 1006.4
20260509031952 72 202 2.0 3.0 0.00 0.05 0.05 82 1006.4
20260509031449 72 133 2.0 2.0 0.00 0.05 0.05 82 1006.4
20260509030947 72 122 1.0 2.0 0.00 0.05 0.05 82 1006.4
20260509030445 72 126 1.0 2.0 0.00 0.05 0.05 81 1006.4
20260509025941 73 134 1.0 2.0 0.00 0.05 0.05 81 1006.2
20260509025437 72 136 1.0 2.0 0.00 0.05 0.05 81 1006.0
20260509024932 72 92 1.0 6.0 0.00 0.05 0.05 81 1005.8
20260509024429 73 58 1.0 3.0 0.00 0.05 0.05 81 1005.6
20260509023925 73 100 1.0 3.0 0.00 0.05 0.05 80 1005.3
20260509023423 73 144 1.0 3.0 0.00 0.05 0.05 80 1005.5
20260509022919 73 218 1.0 4.0 0.00 0.05 0.05 80 1005.7
20260509022417 73 163 0.0 2.0 0.00 0.05 0.05 80 1005.7
20260509021914 73 304 0.0 1.0 0.00 0.05 0.05 79 1005.7
20260509021411 73 136 1.0 2.0 0.00 0.05 0.05 79 1005.7
20260509020908 73 80 3.0 3.0 0.00 0.05 0.05 78 1005.7
20260509020407 73 142 1.0 4.0 0.00 0.05 0.05 78 1005.9
20260509015903 73 126 0.0 2.0 0.00 0.05 0.05 78 1006.1
20260509015402 73 104 1.0 3.0 0.00 0.05 0.05 78 1005.9
20260509014858 73 118 1.0 2.0 0.00 0.05 0.05 78 1005.8
20260509014355 73 114 0.0 1.0 0.00 0.05 0.05 78 1006.0
20260509013851 73 133 0.0 1.0 0.00 0.05 0.05 78 1005.9
20260509013348 73 132 0.0 0.0 0.00 0.05 0.05 78 1006.1
20260509012844 73 152 0.0 1.0 0.00 0.05 0.05 78 1006.0
20260509012340 73 112 0.0 0.0 0.00 0.05 0.05 77 1005.9
20260509011838 73 91 0.0 1.0 0.00 0.05 0.05 77 1005.9
20260509011335 73 111 0.0 1.0 0.00 0.05 0.05 77 1006.0
20260509010833 73 158 0.0 1.0 0.00 0.05 0.05 77 1005.5
20260509010330 74 83 1.0 2.0 0.00 0.05 0.05 76 1005.5
20260509005827 74 107 1.0 2.0 0.00 0.05 0.05 76 1005.5
20260509005325 74 87 2.0 2.0 0.00 0.05 0.05 76 1005.6
20260509004825 74 153 0.0 1.0 0.00 0.05 0.05 76 1005.2
20260509004322 74 117 0.0 1.0 0.00 0.05 0.05 76 1005.1
20260509003820 74 148 0.0 1.0 0.00 0.05 0.05 75 1005.3
20260509003318 74 142 1.0 1.0 0.00 0.05 0.05 75 1005.0
20260509002815 74 231 1.0 1.0 0.00 0.05 0.05 75 1005.1
20260509002312 74 248 1.0 2.0 0.00 0.05 0.05 75 1005.2
20260509001810 74 252 0.0 1.0 0.00 0.05 0.05 75 1005.6
20260509001305 74 122 0.0 1.0 0.00 0.05 0.05 74 1005.6
20260509000804 74 234 0.0 1.0 0.00 0.05 0.05 74 1005.6
20260509000303 74 122 0.0 1.0 0.00 0.05 0.05 74 1005.6
20260508235757 74 128 0.0 1.0 0.00 0.05 0.05 73 1005.8
20260508235254 74 156 0.0 1.0 0.00 0.05 0.05 73 1005.8
20260508234751 74 266 0.0 2.0 0.00 0.05 0.05 73 1005.7
20260508234247 74 175 0.0 1.0 0.00 0.05 0.05 73 1005.7
20260508233747 75 123 0.0 1.0 0.00 0.05 0.05 72 1005.8
20260508233245 75 92 1.0 2.0 0.00 0.05 0.05 72 1005.7
20260508232742 75 198 1.0 2.0 0.00 0.05 0.05 71 1005.9
20260508232238 74 233 1.0 1.0 0.00 0.05 0.05 72 1005.7
20260508231736 74 159 0.0 2.0 0.00 0.05 0.05 72 1005.8
20260508231232 74 194 1.0 2.0 0.00 0.05 0.05 72 1005.6
20260508230730 74 163 0.0 3.0 0.00 0.05 0.05 72 1005.8
20260508230225 74 235 1.0 4.0 0.00 0.05 0.05 71 1005.8
20260508225724 75 132 0.0 3.0 0.00 0.05 0.05 71 1006.0
20260508225220 75 111 2.0 4.0 0.00 0.05 0.05 70 1005.8
20260508224718 75 256 1.0 3.0 0.00 0.05 0.05 71 1005.9
20260508224215 76 81 3.0 6.0 0.00 0.05 0.05 69 1005.8
20260508223713 76 84 1.0 7.0 0.00 0.05 0.05 70 1005.5
20260508223210 75 133 1.0 3.0 0.00 0.05 0.05 70 1005.7
20260508222707 75 142 3.0 3.0 0.00 0.05 0.05 69 1005.7
20260508222204 75 181 2.0 3.0 0.00 0.05 0.05 70 1005.7
20260508221700 74 251 2.0 4.0 0.00 0.05 0.05 70 1005.6
20260508221156 75 156 2.0 4.0 0.00 0.05 0.05 69 1005.7
20260508220653 74 272 1.0 7.0 0.00 0.05 0.05 69 1006.0
20260508220149 74 151 3.0 4.0 0.00 0.05 0.05 70 1005.8
20260508215646 74 165 2.0 3.0 0.00 0.05 0.05 69 1006.1
20260508215143 74 177 2.0 4.0 0.00 0.05 0.05 68 1006.2
20260508214640 74 197 1.0 6.0 0.00 0.05 0.05 68 1006.1
20260508214137 74 310 2.0 3.0 0.00 0.05 0.05 69 1006.3
20260508213634 74 120 2.0 4.0 0.00 0.05 0.05 69 1006.3
20260508213130 74 165 4.0 6.0 0.00 0.05 0.05 68 1006.2
20260508212626 75 102 3.0 6.0 0.00 0.05 0.05 68 1006.4
20260508212123 74 100 1.0 3.0 0.00 0.05 0.05 67 1006.2
20260508211618 74 161 1.0 6.0 0.00 0.05 0.05 67 1006.4
20260508211115 75 112 4.0 4.0 0.00 0.05 0.05 65 1006.8
20260508210611 74 216 2.0 3.0 0.00 0.05 0.05 65 1006.6
20260508210109 74 237 0.0 3.0 0.00 0.05 0.05 66 1006.9
20260508205606 74 112 1.0 3.0 0.00 0.05 0.05 66 1007.0
20260508205102 74 178 4.0 4.0 0.00 0.05 0.05 66 1007.4
20260508204559 74 282 1.0 2.0 0.00 0.05 0.05 65 1007.4
20260508204054 74 72 2.0 4.0 0.00 0.05 0.05 65 1007.5
20260508203551 74 182 0.0 6.0 0.00 0.05 0.05 65 1007.5
20260508203047 74 142 1.0 3.0 0.00 0.05 0.05 66 1007.1
20260508202544 73 307 1.0 2.0 0.00 0.05 0.05 66 1007.4
20260508202041 72 194 1.0 3.0 0.00 0.05 0.05 68 1007.3